Time,TemperatureF,DewpointF,PressureIn,WindDirection,WindDirectionDegrees,WindSpeedMPH,WindSpeedGustMPH,Humidity,HourlyPrecipIn,Conditions,Clouds,dailyrainin,SoftwareType,DateUTC
2013-10-30 00:01:00,58.2,57.4,30.12,North,7,0.0,0.0,97,0.00,,SKC,0.00,VWS V13.01,2013-10-30 04:01:00,
2013-10-30 00:31:00,57.8,57.0,30.12,North,7,0.0,0.0,97,0.00,,SKC,0.00,VWS V13.01,2013-10-30 04:31:00,
2013-10-30 01:01:00,57.7,56.9,30.11,North,7,0.0,1.0,97,0.00,,SKC,0.00,VWS V13.01,2013-10-30 05:01:00,
2013-10-30 01:31:00,57.2,56.4,30.11,North,7,0.0,0.0,97,0.00,,SKC,0.00,VWS V13.01,2013-10-30 05:31:00,
2013-10-30 02:01:00,57.5,56.9,30.11,North,7,0.0,0.0,98,0.00,,SKC,0.00,VWS V13.01,2013-10-30 06:01:00,
2013-10-30 02:31:00,57.4,56.8,30.11,North,7,0.0,0.0,98,0.00,,SKC,0.00,VWS V13.01,2013-10-30 06:31:00,
2013-10-30 03:01:00,57.2,56.6,30.10,North,7,0.0,0.0,98,0.00,,SKC,0.00,VWS V13.01,2013-10-30 07:01:00,
2013-10-30 03:31:00,57.0,56.4,30.10,North,7,0.0,0.0,98,0.00,,SKC,0.00,VWS V13.01,2013-10-30 07:31:00,
2013-10-30 04:01:00,56.7,56.1,30.11,North,7,0.0,0.0,98,0.00,,SKC,0.00,VWS V13.01,2013-10-30 08:01:00,
2013-10-30 04:31:00,56.5,55.9,30.11,North,7,0.0,0.0,98,0.00,,SKC,0.00,VWS V13.01,2013-10-30 08:31:00,
2013-10-30 05:01:00,56.8,56.2,30.11,North,7,0.0,0.0,98,0.00,,SKC,0.00,VWS V13.01,2013-10-30 09:01:00,
2013-10-30 05:31:00,57.0,56.4,30.11,North,7,0.0,0.0,98,0.00,,SKC,0.00,VWS V13.01,2013-10-30 09:31:00,
2013-10-30 06:01:00,57.3,56.7,30.12,North,7,0.0,0.0,98,0.00,,SKC,0.00,VWS V13.01,2013-10-30 10:01:00,
2013-10-30 06:31:00,57.1,56.5,30.13,North,7,0.0,0.0,98,0.00,,SKC,0.00,VWS V13.01,2013-10-30 10:31:00,
2013-10-30 07:01:00,57.5,56.9,30.12,North,6,0.0,0.0,98,0.00,,SKC,0.00,VWS V13.01,2013-10-30 11:01:00,
2013-10-30 07:31:00,56.6,55.8,30.13,North,7,0.0,0.0,97,0.00,,SKC,0.00,VWS V13.01,2013-10-30 11:31:00,
2013-10-30 08:01:00,56.1,55.5,30.13,South,183,0.0,1.0,98,0.00,,SKC,0.00,VWS V13.01,2013-10-30 12:01:00,
2013-10-30 08:31:00,56.5,55.9,30.14,South,191,0.0,0.0,98,0.00,,SKC,0.00,VWS V13.01,2013-10-30 12:31:00,
2013-10-30 09:01:00,57.2,56.6,30.14,SSW,193,0.0,0.0,98,0.00,,SKC,0.00,VWS V13.01,2013-10-30 13:01:00,
2013-10-30 09:31:00,58.4,57.0,30.15,South,186,0.0,0.0,95,0.00,,SKC,0.00,VWS V13.01,2013-10-30 13:31:00,
2013-10-30 10:01:00,61.0,58.4,30.15,SSW,205,0.0,0.0,91,0.00,,SKC,0.00,VWS V13.01,2013-10-30 14:01:00,
2013-10-30 10:31:00,63.1,59.5,30.16,SE,132,0.0,0.0,88,0.00,,SKC,0.00,VWS V13.01,2013-10-30 14:31:00,
2013-10-30 11:01:00,64.8,59.9,30.16,WSW,245,0.0,0.0,84,0.00,,SKC,0.00,VWS V13.01,2013-10-30 15:01:00,
2013-10-30 11:31:00,66.3,60.0,30.15,NW,308,0.0,0.0,80,0.00,,SKC,0.00,VWS V13.01,2013-10-30 15:31:00,
2013-10-30 12:01:00,69.3,61.4,30.14,SW,223,0.0,0.0,76,0.00,,SKC,0.00,VWS V13.01,2013-10-30 16:01:00,
2013-10-30 12:31:00,72.4,61.7,30.12,SSW,196,3.0,3.0,69,0.00,,SKC,0.00,VWS V13.01,2013-10-30 16:31:00,
2013-10-30 13:01:00,73.2,60.7,30.10,West,261,0.0,3.0,65,0.00,,SKC,0.00,VWS V13.01,2013-10-30 17:01:00,
2013-10-30 13:31:00,74.5,59.7,30.08,North,7,0.0,1.0,60,0.00,,SKC,0.00,VWS V13.01,2013-10-30 17:31:00,
2013-10-30 14:01:00,75.5,60.2,30.07,WNW,288,0.0,1.0,59,0.00,,SKC,0.00,VWS V13.01,2013-10-30 18:01:00,
2013-10-30 14:31:00,76.2,59.4,30.05,WSW,250,0.0,0.0,56,0.00,,SKC,0.00,VWS V13.01,2013-10-30 18:31:00,
2013-10-30 15:01:00,76.7,59.8,30.04,North,9,0.0,0.0,56,0.00,,SKC,0.00,VWS V13.01,2013-10-30 19:01:00,
2013-10-30 15:31:00,77.6,56.4,30.03,West,269,0.0,2.0,48,0.00,,SKC,0.00,VWS V13.01,2013-10-30 19:31:00,
2013-10-30 16:01:00,78.3,58.7,30.03,SSW,209,2.0,3.0,51,0.00,,SKC,0.00,VWS V13.01,2013-10-30 20:01:00,
2013-10-30 16:31:00,76.7,58.8,30.00,SW,236,0.0,3.0,54,0.00,,SKC,0.00,VWS V13.01,2013-10-30 20:31:00,
2013-10-30 17:01:00,75.5,58.7,30.01,SW,220,2.0,5.0,56,0.00,,SKC,0.00,VWS V13.01,2013-10-30 21:01:00,
2013-10-30 17:31:00,75.0,59.2,30.00,SSW,202,0.0,3.0,58,0.00,,SKC,0.00,VWS V13.01,2013-10-30 21:31:00,
2013-10-30 18:01:00,73.9,57.2,30.00,SW,235,3.0,5.0,56,0.00,,SKC,0.00,VWS V13.01,2013-10-30 22:01:00,
2013-10-30 18:31:00,72.8,57.2,30.00,SSE,158,0.0,6.0,58,0.00,,SKC,0.00,VWS V13.01,2013-10-30 22:31:00,
2013-10-30 19:01:00,71.1,56.5,30.00,South,173,0.0,2.0,60,0.00,,SKC,0.00,VWS V13.01,2013-10-30 23:01:00,
2013-10-30 19:31:00,70.4,56.3,30.01,South,184,0.0,2.0,61,0.00,,SKC,0.00,VWS V13.01,2013-10-30 23:31:00,
2013-10-30 20:01:00,69.4,56.3,30.01,South,178,0.0,2.0,63,0.00,,SKC,0.00,VWS V13.01,2013-10-31 00:01:00,
2013-10-30 20:31:00,68.2,56.8,30.01,ESE,111,0.0,0.0,67,0.00,,SKC,0.00,VWS V13.01,2013-10-31 00:31:00,
2013-10-30 21:01:00,66.6,57.3,30.01,ESE,115,0.0,0.0,72,0.00,,SKC,0.00,VWS V13.01,2013-10-31 01:01:00,
2013-10-30 21:31:00,64.3,57.3,30.00,ESE,115,0.0,0.0,78,0.00,,SKC,0.00,VWS V13.01,2013-10-31 01:31:00,
2013-10-30 22:01:00,63.5,57.6,30.01,ESE,115,0.0,0.0,81,0.00,,SKC,0.00,VWS V13.01,2013-10-31 02:01:00,
2013-10-30 22:31:00,63.2,57.3,30.01,ESE,115,0.0,0.0,81,0.00,,SKC,0.00,VWS V13.01,2013-10-31 02:31:00,
2013-10-30 23:01:00,62.6,58.4,30.02,ESE,115,0.0,0.0,86,0.00,,SKC,0.00,VWS V13.01,2013-10-31 03:01:00,
2013-10-30 23:31:00,63.0,57.1,30.01,South,178,0.0,0.0,81,0.00,,SKC,0.00,VWS V13.01,2013-10-31 03:31:00,